Temp
13 13 13 13 13 12 12 12 12 12 11 11 11 11 10 10 10 10 10 10 10 11 11 11 11 11 11 11 11 10 10 10 10 10 10 10 10 10 10 10 9 9
13 13 13 13 13 13 13 12 12 12 12 11 11 11 11 10 10 10 10 10 10 11 11 11 11 11 11 11 11 10 10 10 10 10 10 10 10 10 10 10 9 9
13 13 13 13 13 13 13 13 12 12 12 12 12 11 11 11 10 10 10 10 11 11 12 11 11 11 11 11 11 11 11 11 10 10 10 10 10 10 10 10 9 9
13 13 13 13 13 13 13 13 13 12 12 12 12 12 11 11 11 11 11 11 11 12 12 12 12 12 11 11 11 11 11 11 11 11 11 10 10 10 10 10 9 9
13 13 13 13 13 13 13 13 13 13 12 12 12 12 11 11 11 11 11 11 12 12 12 12 12 12 11 11 11 11 11 11 11 11 11 10 10 10 10 10 9 9
14 13 13 13 13 13 13 13 13 13 12 12 12 12 12 11 11 11 11 12 12 12 12 12 12 12 12 11 11 11 11 11 11 11 11 11 10 10 10 10 9 9
14 14 13 13 13 13 13 13 13 13 13 12 12 12 12 12 12 12 12 12 12 12 12 12 12 12 12 11 11 11 11 11 11 11 11 11 10 10 10 10 9 9
14 14 14 13 13 13 13 13 13 13 13 13 12 12 12 12 12 12 12 12 13 13 13 13 12 12 12 12 11 11 11 11 11 11 11 11 11 10 10 10 10 9
14 14 13 14 14 13 13 13 13 13 13 13 13 13 12 12 12 12 12 13 13 13 13 13 13 12 12 12 12 11 11 11 11 11 11 11 11 11 10 10 10 9
14 14 14 14 14 14 13 13 13 13 13 13 13 13 13 13 12 12 13 13 13 13 13 13 13 12 12 12 12 11 11 11 11 11 11 11 11 11 10 10 10 10
14 14 14 14 14 14 13 13 13 13 13 13 13 13 13 13 13 13 13 13 14 13 13 13 13 12 12 12 12 12 11 11 11 11 11 11 11 11 11 10 10 10
14 14 15 15 14 14 13 13 14 14 14 14 13 13 14 13 13 13 14 14 14 14 13 13 13 13 12 12 12 12 12 11 11 11 11 11 11 11 11 11 10 10
15 15 15 15 15 14 14 14 14 14 14 14 14 14 14 14 14 14 14 14 14 14 13 13 13 13 12 12 12 12 12 12 12 11 11 11 11 11 11 11 11 10
15 15 15 15 15 14 14 14 14 14 14 14 14 14 14 14 14 14 14 14 14 14 13 13 13 13 13 12 12 12 12 12 12 12 12 11 11 11 11 11 11 11
15 15 15 15 15 15 15 15 15 15 15 15 15 15 15 15 15 14 14 14 14 14 13 13 13 13 13 13 12 12 12 12 12 12 12 12 12 11 11 11 11 11
15 15 15 15 15 15 15 15 15 15 15 15 15 15 15 15 15 14 14 14 14 14 13 13 13 13 13 13 13 12 12 12 12 12 12 12 12 12 12 11 11 11
16 15 16 15 15 15 15 15 15 15 15 16 16 15 15 15 15 15 14 14 14 14 14 13 13 13 13 13 13 13 12 12 12 12 12 12 12 12 12 11 11 11
16 16 16 16 16 15 15 15 15 15 16 16 16 16 16 15 15 15 15 14 14 14 14 13 13 13 13 13 13 13 12 12 12 12 12 12 12 12 12 12 12 12
16 16 16 16 16 16 15 15 15 15 15 16 16 16 16 15 15 15 15 14 14 14 14 13 13 13 13 13 13 13 13 12 12 12 12 12 12 12 12 12 12 12
16 16 16 16 16 16 15 15 15 15 15 15 16 16 16 16 15 15 15 15 14 14 14 14 13 13 13 13 13 13 13 12 12 12 12 12 12 12 12 12 12 12
17 16 16 16 16 15 15 15 15 15 15 15 15 16 16 16 16 15 15 15 15 14 14 14 14 13 13 13 13 13 13 12 12 12 12 12 12 12 12 12 12 12
17 17 17 16 16 16 16 15 15 15 15 15 15 15 16 16 16 15 15 15 15 15 14 14 14 13 13 13 13 13 13 13 12 12 12 12 12 12 12 12 12 12
17 17 17 16 16 16 16 16 16 15 15 15 15 15 15 16 16 16 15 15 15 15 15 15 14 14 13 13 13 13 13 13 13 12 12 12 12 12 12 12 13 13
17 17 17 17 17 16 16 16 16 16 15 15 15 15 15 15 15 16 15 15 15 15 15 15 14 14 14 13 13 13 13 13 13 13 13 12 12 12 13 13 13 13
17 17 17 17 17 17 17 17 16 16 16 15 15 15 15 15 15 16 16 16 15 15 15 15 15 14 14 14 13 13 13 13 13 13 13 13 13 13 13 13 13 13
17 17 17 17 17 17 17 17 17 16 16 16 16 16 16 16 16 16 15 15 15 15 15 15 15 15 14 14 14 13 13 13 13 13 13 13 13 13 13 13 13 13
Height
3190 3192 3194 3195 3196 3198 3199 3201 3202 3203 3204 3205 3206 3207 3208 3209 3210 3211 3212 3212 3213 3214 3215 3216 3218 3219 3220 3221 3222 3223 3223 3224 3224 3225 3225 3225 3224 3224 3224 3224 3223 3223
3188 3190 3191 3193 3194 3196 3197 3199 3200 3201 3202 3203 3204 3205 3206 3207 3208 3209 3210 3210 3211 3212 3213 3214 3216 3217 3218 3219 3220 3221 3222 3223 3223 3224 3224 3224 3224 3224 3223 3223 3223 3223
3185 3187 3188 3190 3192 3194 3195 3196 3198 3199 3200 3201 3202 3203 3203 3204 3205 3206 3207 3208 3209 3210 3211 3212 3213 3215 3216 3217 3218 3219 3220 3221 3222 3222 3223 3223 3223 3223 3222 3222 3222 3222
3182 3184 3186 3188 3190 3191 3193 3194 3195 3196 3197 3198 3199 3200 3201 3202 3203 3204 3205 3206 3207 3208 3210 3211 3211 3213 3214 3215 3216 3218 3219 3220 3220 3221 3221 3221 3221 3221 3221 3221 3221 3221
3179 3181 3183 3185 3187 3188 3189 3190 3192 3194 3195 3196 3197 3198 3199 3199 3200 3201 3202 3203 3205 3206 3208 3209 3210 3210 3212 3213 3214 3216 3217 3218 3219 3219 3220 3220 3220 3220 3220 3220 3220 3219
3176 3178 3180 3182 3184 3185 3186 3187 3189 3191 3192 3193 3194 3195 3196 3197 3197 3198 3200 3201 3203 3204 3206 3207 3208 3209 3210 3211 3212 3214 3215 3216 3217 3217 3218 3218 3218 3218 3218 3218 3218 3218
3173 3175 3177 3178 3180 3182 3183 3184 3186 3187 3189 3190 3191 3192 3193 3194 3195 3196 3197 3199 3200 3202 3203 3205 3206 3207 3208 3209 3210 3211 3212 3214 3215 3215 3216 3216 3217 3216 3217 3217 3216 3216
3170 3172 3173 3175 3176 3178 3179 3181 3183 3184 3186 3187 3188 3189 3190 3191 3192 3193 3194 3196 3197 3199 3201 3202 3204 3205 3206 3206 3208 3209 3210 3211 3212 3213 3214 3214 3215 3215 3215 3215 3215 3214
3167 3169 3170 3171 3172 3174 3175 3177 3179 3181 3182 3183 3185 3186 3187 3188 3189 3190 3191 3193 3194 3196 3198 3199 3201 3202 3203 3204 3206 3206 3208 3209 3210 3211 3211 3212 3212 3212 3212 3212 3212 3212
3164 3166 3167 3168 3169 3170 3172 3174 3176 3177 3179 3180 3181 3183 3184 3185 3186 3187 3188 3189 3191 3193 3194 3196 3198 3200 3201 3202 3204 3204 3205 3206 3207 3208 3209 3210 3210 3210 3210 3210 3210 3210
3161 3163 3164 3164 3166 3167 3169 3170 3172 3173 3174 3176 3177 3179 3180 3182 3183 3184 3185 3186 3188 3190 3192 3193 3195 3197 3198 3200 3201 3203 3203 3204 3205 3205 3206 3207 3208 3208 3208 3208 3208 3208
3158 3159 3160 3162 3163 3164 3166 3167 3168 3170 3171 3172 3174 3175 3177 3178 3179 3180 3181 3183 3185 3187 3189 3191 3192 3194 3195 3197 3199 3200 3201 3202 3202 3203 3204 3204 3205 3205 3205 3205 3205 3205
3155 3156 3157 3159 3160 3162 3163 3165 3165 3166 3167 3169 3170 3171 3173 3174 3176 3177 3178 3180 3182 3184 3186 3188 3189 3190 3192 3194 3196 3197 3199 3199 3199 3200 3201 3202 3202 3202 3202 3202 3202 3202
3152 3153 3155 3156 3158 3159 3160 3161 3163 3163 3164 3165 3167 3168 3169 3171 3172 3173 3175 3176 3178 3180 3183 3184 3186 3187 3189 3191 3192 3194 3196 3196 3197 3197 3198 3199 3199 3199 3199 3199 3199 3199
3149 3150 3152 3153 3154 3156 3157 3158 3160 3161 3161 3162 3163 3164 3166 3167 3169 3170 3171 3172 3174 3177 3179 3181 3182 3183 3185 3187 3189 3191 3193 3193 3194 3195 3195 3195 3196 3196 3196 3196 3196 3196
3145 3147 3148 3149 3150 3152 3153 3155 3157 3158 3158 3159 3160 3161 3162 3164 3165 3166 3167 3169 3171 3173 3175 3176 3178 3180 3182 3184 3186 3188 3190 3190 3191 3191 3192 3192 3193 3193 3193 3193 3193 3193
3142 3143 3144 3146 3147 3148 3150 3151 3153 3155 3155 3156 3157 3158 3159 3160 3161 3162 3164 3165 3167 3169 3171 3172 3174 3176 3179 3181 3183 3185 3186 3187 3187 3188 3189 3189 3189 3190 3190 3190 3190 3190
3138 3139 3141 3142 3143 3145 3146 3147 3149 3151 3152 3152 3153 3155 3156 3157 3157 3159 3160 3162 3163 3165 3167 3168 3170 3173 3176 3178 3180 3181 3182 3183 3184 3185 3185 3185 3186 3186 3186 3186 3186 3186
3134 3135 3137 3138 3139 3141 3142 3144 3145 3146 3147 3149 3150 3152 3153 3153 3154 3155 3157 3158 3159 3161 3163 3165 3167 3170 3172 3174 3176 3177 3178 3179 3180 3181 3181 3182 3182 3182 3182 3182 3182 3182
3130 3132 3133 3134 3136 3138 3139 3140 3141 3142 3143 3145 3147 3148 3149 3149 3150 3152 3153 3154 3155 3157 3159 3160 3163 3165 3168 3170 3172 3173 3174 3175 3175 3176 3177 3177 3178 3178 3178 3178 3178 3178
3126 3128 3129 3131 3132 3134 3135 3136 3137 3138 3139 3141 3142 3144 3145 3146 3147 3148 3149 3150 3152 3153 3154 3156 3158 3161 3164 3166 3168 3169 3170 3171 3171 3172 3173 3173 3173 3173 3173 3173 3174 3174
3122 3124 3126 3127 3129 3130 3130 3132 3133 3134 3135 3136 3137 3140 3141 3142 3143 3144 3145 3146 3148 3149 3150 3151 3153 3157 3159 3161 3163 3165 3166 3166 3166 3167 3167 3168 3168 3169 3169 3169 3170 3170
3118 3120 3122 3123 3124 3125 3126 3127 3128 3129 3131 3132 3133 3135 3136 3138 3139 3140 3141 3142 3143 3144 3145 3147 3149 3152 3154 3157 3158 3160 3161 3161 3161 3162 3162 3163 3163 3164 3164 3164 3165 3166
3114 3116 3117 3119 3120 3121 3122 3123 3124 3126 3127 3128 3129 3130 3132 3134 3135 3136 3137 3138 3139 3140 3141 3143 3144 3147 3150 3152 3153 3155 3155 3156 3157 3157 3157 3158 3158 3158 3158 3159 3161 3162
3110 3112 3114 3115 3116 3117 3118 3119 3120 3122 3123 3124 3125 3126 3128 3130 3131 3132 3132 3133 3134 3136 3137 3138 3140 3142 3144 3146 3148 3149 3150 3151 3152 3152 3152 3152 3153 3153 3153 3154 3156 3157
3107 3109 3110 3112 3113 3113 3115 3116 3117 3118 3118 3119 3120 3122 3123 3124 3126 3127 3128 3129 3130 3130 3132 3133 3135 3136 3138 3140 3142 3144 3145 3146 3146 3147 3147 3147 3147 3147 3148 3150 3151 3153
Wind_Speed
25 25 24 23 23 22 21 19 18 17 16 15 15 16 19 19 19 19 18 18 18 20 22 22 22 21 20 19 18 17 14 12 10 8 5 3 2 2 3 5 6 7
27 26 25 25 24 23 22 21 20 19 17 16 15 15 19 21 22 21 21 21 21 22 23 24 24 23 22 21 19 18 16 14 12 10 8 7 5 5 5 6 6 7
29 28 27 26 25 24 23 22 22 21 20 18 16 16 18 22 24 23 24 24 23 24 25 25 25 25 24 23 21 19 17 15 14 13 11 9 8 8 7 8 8 8
31 30 29 27 26 25 25 25 24 23 22 20 18 17 18 21 24 25 25 26 25 26 27 27 26 26 25 24 23 20 18 17 16 14 12 11 10 10 10 10 10 10
32 32 31 30 28 27 27 27 26 25 23 22 20 19 18 20 23 26 27 27 27 27 28 28 28 27 27 26 24 22 20 18 17 14 13 12 12 11 12 11 11 12
34 34 33 32 31 30 30 30 28 26 25 24 23 22 20 20 22 26 27 27 28 29 30 29 29 28 28 27 25 23 21 19 18 16 14 13 13 13 13 13 13 12
32 34 33 33 32 31 31 31 30 29 28 26 25 24 23 21 22 25 27 28 29 30 31 30 30 30 29 28 27 24 22 20 19 17 15 14 14 14 14 14 14 14
25 28 30 31 32 32 32 32 32 31 31 30 28 26 25 23 23 25 27 29 30 31 31 31 31 31 30 30 28 26 24 22 20 18 16 16 15 15 15 15 15 15
20 22 24 27 29 31 32 32 32 32 32 32 31 28 26 25 25 26 28 29 30 31 32 32 32 32 32 31 30 27 25 23 21 20 18 17 17 17 17 17 17 17
22 21 22 23 25 27 28 30 31 33 34 34 32 30 28 27 27 27 29 30 31 32 33 34 34 33 33 32 31 28 26 24 22 21 20 19 18 18 19 19 18 18
24 23 23 24 24 24 24 25 27 30 32 34 33 31 29 28 29 29 30 31 32 33 34 34 34 34 34 33 32 30 27 25 24 23 21 20 19 20 20 20 20 19
26 25 25 24 25 24 23 23 23 25 28 31 32 31 30 30 31 32 31 31 32 33 34 35 35 35 35 34 33 31 29 27 26 24 23 22 21 21 22 21 21 21
28 27 27 26 25 24 23 23 23 23 25 28 30 31 31 32 33 33 32 32 33 34 35 36 36 36 36 35 34 32 30 28 27 25 24 23 22 23 23 23 22 22
29 29 28 28 27 26 25 25 24 24 24 26 28 31 32 33 34 34 33 34 34 35 36 37 37 37 37 37 36 33 31 29 27 26 24 24 23 24 24 24 23 24
30 30 30 30 29 29 28 27 26 25 25 25 27 29 32 34 34 35 35 35 36 36 37 38 38 38 38 38 37 34 31 30 28 26 26 25 25 25 25 25 25 26
31 31 31 32 32 31 31 30 28 27 26 26 26 28 32 34 35 36 37 37 37 38 38 39 40 38 37 38 37 34 32 31 29 28 28 27 26 26 27 27 27 28
31 32 32 33 33 33 33 32 30 29 29 28 27 27 31 34 36 37 38 39 39 39 40 41 41 39 37 37 38 36 33 32 31 30 30 29 29 28 28 28 29 30
32 33 33 33 34 34 34 34 33 32 31 30 29 28 30 33 37 38 39 40 40 40 41 42 41 40 37 37 38 38 35 34 33 32 32 32 31 30 30 31 31 31
32 32 33 34 35 34 34 34 34 35 35 33 32 30 30 33 37 39 39 40 41 42 42 42 42 41 39 38 38 39 38 37 36 35 34 34 33 32 32 33 33 32
32 32 33 34 33 33 34 34 35 37 38 36 34 33 32 33 36 39 40 40 41 43 43 43 43 42 41 40 39 39 39 39 38 37 36 36 35 35 35 35 34 33
30 30 31 32 32 32 33 35 36 38 39 39 37 36 34 34 35 38 40 41 42 43 44 44 44 44 43 42 41 41 40 41 40 40 39 39 38 37 37 37 35 34
29 29 29 29 29 31 33 34 35 38 39 40 40 38 37 36 36 38 40 42 43 43 44 45 45 44 45 44 44 43 43 43 43 42 42 41 41 40 39 38 36 35
28 27 26 27 29 30 32 33 35 37 38 40 41 41 40 39 38 39 40 42 44 44 45 46 46 45 45 46 46 46 45 45 45 44 44 44 43 42 41 40 38 35
26 25 25 27 28 29 31 33 34 35 36 37 40 42 42 41 41 41 41 42 44 45 45 45 46 47 46 46 47 47 47 47 46 45 46 46 45 45 44 42 39 36
27 26 25 24 22 23 27 30 31 33 34 35 37 38 39 40 42 43 43 43 43 45 46 46 46 47 48 48 48 49 49 48 48 47 48 48 48 48 47 44 40 37
30 29 27 23 21 20 22 23 26 29 31 32 34 33 32 33 36 41 44 46 45 45 47 47 47 48 49 49 49 50 50 50 49 49 49 50 51 50 49 45 41 38
Wind_Direction
230 231 231 231 231 233 234 235 236 239 242 243 242 239 235 232 226 220 215 214 211 204 199 196 194 192 190 192 195 197 195 191 189 190 194 211 265 320 345 354 354 350
232 233 233 232 232 233 235 236 237 239 241 242 243 239 234 229 224 219 216 215 211 205 201 198 196 195 194 196 200 202 201 202 203 207 217 232 252 273 295 314 322 325
235 235 235 234 234 235 237 238 239 240 241 242 241 240 236 231 225 219 216 215 211 206 203 200 198 198 197 199 203 205 206 208 211 216 224 236 249 262 275 288 296 303
239 239 238 237 236 236 237 239 239 240 242 243 243 242 240 235 228 221 218 216 210 206 205 203 201 200 201 203 205 207 209 211 216 221 227 238 250 259 267 276 283 289
239 241 241 240 238 237 237 239 240 241 243 244 244 244 242 239 232 224 220 217 211 207 207 206 204 204 204 206 208 209 211 214 220 224 229 239 249 257 264 270 275 281
238 239 241 241 240 238 238 239 241 242 243 243 244 244 242 240 235 228 223 219 213 208 208 208 208 207 207 210 211 212 213 217 222 226 229 237 247 256 263 269 274 277
237 239 240 241 240 239 239 239 239 240 241 243 243 243 242 240 236 230 225 221 215 210 209 210 211 210 211 212 213 214 216 219 224 228 229 235 245 254 262 268 272 274
232 235 237 239 240 240 239 238 238 238 240 242 244 243 242 241 238 232 226 222 217 212 210 211 213 213 214 215 215 215 217 219 224 228 231 236 244 253 260 266 270 272
232 231 233 235 236 237 238 238 238 237 238 241 243 243 241 239 238 233 228 224 218 214 212 213 215 216 217 217 217 216 216 218 224 228 231 236 244 252 258 263 267 271
235 234 234 235 236 236 236 237 237 237 238 239 241 241 238 237 237 234 229 225 220 216 214 214 217 218 219 219 219 217 216 218 223 227 231 237 243 250 256 261 266 270
233 234 236 238 239 240 239 238 237 236 236 236 238 237 234 233 234 233 230 226 221 218 217 217 218 220 221 221 220 218 217 219 223 226 231 236 243 249 254 259 263 268
232 234 237 239 241 242 243 242 241 238 236 235 235 233 230 229 231 233 232 227 222 219 219 219 220 221 222 222 222 220 219 221 222 225 230 235 241 248 254 258 262 266
230 235 239 241 243 243 245 246 246 243 239 236 234 230 227 227 229 232 233 229 224 221 221 220 221 223 224 223 223 222 222 223 224 227 231 235 241 248 254 258 262 265
227 232 238 242 243 243 245 246 246 246 243 240 236 230 226 226 229 232 233 230 225 222 222 221 222 224 225 224 224 224 225 226 227 230 233 236 242 248 254 259 262 266
224 229 235 239 241 242 243 245 245 246 245 243 239 232 227 226 227 230 231 230 226 223 222 223 223 226 226 225 225 226 227 229 231 233 236 239 243 249 255 259 262 267
223 227 231 235 239 241 243 244 245 246 246 245 242 236 230 227 227 228 230 230 227 224 223 224 225 227 228 226 226 227 229 231 233 236 238 240 245 250 255 258 262 266
223 227 230 233 237 240 242 243 244 246 246 246 245 240 233 229 228 228 229 230 229 226 225 226 227 229 229 228 228 229 230 232 235 237 239 242 245 250 254 258 260 264
222 226 229 232 236 238 240 242 244 246 246 245 244 242 238 233 230 229 229 230 231 229 227 228 229 230 229 229 230 231 232 234 236 238 240 243 246 251 255 257 260 263
222 224 227 231 234 236 237 239 242 246 247 245 244 243 241 236 232 231 230 230 232 231 230 230 230 230 230 230 231 232 233 235 237 238 241 244 247 251 255 258 261 264
223 224 227 231 233 235 236 237 240 244 246 245 244 243 242 240 236 233 231 231 232 233 232 231 231 231 231 231 232 233 234 235 237 239 241 244 248 251 255 258 262 266
228 228 229 233 235 236 237 238 238 240 243 244 244 243 242 242 240 236 233 232 233 233 233 233 232 231 231 231 232 233 234 235 237 239 241 243 247 251 255 259 263 267
232 233 234 237 239 239 239 240 239 240 242 243 244 244 243 243 242 239 236 234 233 233 234 235 233 231 230 231 231 232 233 234 237 239 241 243 246 250 255 259 262 266
235 238 242 243 243 242 240 240 241 242 242 243 245 246 245 244 243 243 240 236 235 235 235 236 235 232 230 230 231 232 233 234 236 239 241 244 247 250 254 258 261 265
241 245 250 249 248 247 245 242 242 243 244 244 246 248 249 247 245 245 243 241 239 237 237 237 237 234 231 230 231 232 233 234 236 238 241 244 247 250 253 256 259 263
244 247 251 251 250 253 252 247 244 243 244 244 246 249 252 253 251 249 246 243 242 240 239 238 238 237 234 232 231 232 233 235 236 237 240 244 246 249 251 254 258 261
247 250 251 247 245 251 254 250 245 242 242 243 244 246 249 253 256 255 251 248 245 242 241 239 239 238 237 234 233 232 233 234 236 237 240 243 246 248 251 254 256 259